Goodland, KS

2:36 PM MDT on April 20, 2018 (GMT -0600)
Renner-Goodland Municipal

Weather History for KGLD - November, 2011

Change the Weather History Date:

Monday, November 14, 2011

  Actual Average Record
Temperature  
Mean Temperature 44 °F 40 °F  
Max Temperature 60 °F 53 °F 75 °F (1975)
Min Temperature 27 °F 26 °F -4 °F (1940)
Degree Days  
Heating Degree Days 21 25  
Month to date heating degree days 335 310  
Since 1 July heating degree days 804 850  
Cooling Degree Days 0 0  
Month to date cooling degree days 0 0  
Year to date cooling degree days 1116 941  
Moisture  
Dew Point 22 °F    
Average Humidity 46    
Maximum Humidity 75    
Minimum Humidity 17    
Precipitation  
Precipitation 0.00 in 0.02 in 0.61 in (1926)
Month to date precipitation 0.28 0.39  
Year to date precipitation 18.89 18.88  
Snow  
Snow 0.00 in 0.10 in - ()
Month to date snowfall 3.1 1.8  
Since 1 July snowfall 3.3 4.4  
Since 1 September snowfall 3.3 4.4  
Snow Depth 0.00 in    
Sea Level Pressure  
Sea Level Pressure 29.73 in    
Wind  
Wind Speed 13 mph (SW)    
Max Wind Speed 23 mph    
Max Gust Speed 30 mph    
Visibility 10 miles    
Events      
T = Trace of Precipitation, MM = Missing Value Source: NWS Daily Summary

Daily Weather History Graph

Daily Weather History Graph

Search for Another Location

Airport or City:

Astronomy

Nov. 14, 2011 Rise Set
Actual Time 6:29 AM MST 4:32 PM MST
Civil Twilight 6:00 AM MST 5:01 PM MST
Nautical Twilight 5:28 AM MST 5:33 PM MST
Astronomical Twilight 4:56 AM MST 6:05 PM MST
Moon 7:42 PM MST (11/14) 9:48 AM MST (11/14)
Length of Visible Light 11h 00m
Length of Day
10h 03m
Waning Gibbous, 86% of the Moon is Illuminated
Nov 14
Waning Gibbous
Nov 18
Last Quarter
Nov 24
New
Dec 2
First Quarter
Dec 10
Full

Hourly Weather History & Observations

Time (MST) Temp. Windchill Dew Point Humidity Pressure Visibility Wind Dir Wind Speed Gust Speed Precip Events Conditions
12:53 AM 30.0 °F 22.4 °F 21.9 °F 72% 29.69 in 10.0 mi NW 8.1 mph - N/A   Clear
1:53 AM 28.0 °F 20.8 °F 21.0 °F 75% 29.71 in 10.0 mi WSW 6.9 mph - N/A   Clear
2:53 AM 28.9 °F 21.1 °F 21.9 °F 75% 29.72 in 10.0 mi WSW 8.1 mph - N/A   Clear
3:53 AM 30.0 °F 20.5 °F 21.9 °F 72% 29.73 in 10.0 mi WSW 11.5 mph - N/A   Clear
5:53 AM 28.9 °F 18.6 °F 21.0 °F 72% 29.78 in 10.0 mi WSW 12.7 mph - N/A   Clear
6:53 AM 30.0 °F 21.7 °F 21.9 °F 72% 29.82 in 10.0 mi WSW 9.2 mph - N/A   Clear
7:53 AM 36.0 °F 28.5 °F 25.0 °F 64% 29.83 in 10.0 mi SW 10.4 mph - N/A   Clear
8:53 AM 42.1 °F 34.9 °F 26.1 °F 53% 29.84 in 10.0 mi WSW 13.8 mph - N/A   Clear
9:53 AM 52.0 °F - 24.1 °F 34% 29.81 in 10.0 mi WSW 13.8 mph - N/A   Clear
10:53 AM 55.9 °F - 17.1 °F 22% 29.78 in 10.0 mi West 16.1 mph - N/A   Clear
11:53 AM 57.9 °F - 14.0 °F 18% 29.74 in 10.0 mi West 13.8 mph - N/A   Clear
12:53 PM 55.0 °F - 25.0 °F 31% 29.72 in 10.0 mi SSW 13.8 mph 23.0 mph N/A   Clear
1:53 PM 55.9 °F - 19.0 °F 24% 29.70 in 10.0 mi SW 11.5 mph - N/A   Clear
2:53 PM 55.9 °F - 19.9 °F 25% 29.68 in 10.0 mi SSW 9.2 mph - N/A   Clear
3:53 PM 55.0 °F - 21.0 °F 27% 29.67 in 10.0 mi SSW 15.0 mph 20.7 mph N/A   Clear
4:53 PM 51.1 °F - 21.9 °F 32% 29.68 in 10.0 mi SSW 16.1 mph - N/A   Clear
5:53 PM 48.2 °F - 24.8 °F 40% 29.66 in 10.0 mi SSW 16.1 mph - N/A   Clear
6:53 PM 45.0 °F 38.2 °F 27.0 °F 49% 29.70 in 10.0 mi SSW 15.0 mph - N/A   Clear
7:53 PM 45.0 °F 36.9 °F 26.1 °F 48% 29.69 in 10.0 mi SSW 20.7 mph 28.8 mph N/A   Clear
8:53 PM 45.0 °F 37.6 °F 25.0 °F 46% 29.70 in 10.0 mi SW 17.3 mph - N/A   Clear
9:53 PM 45.0 °F 38.5 °F 25.0 °F 46% 29.68 in 10.0 mi SW 13.8 mph - N/A   Clear
10:53 PM 35.1 °F 27.4 °F 21.0 °F 57% 29.70 in 10.0 mi West 10.4 mph - N/A   Clear
11:53 PM 34.0 °F 26.0 °F 18.0 °F 52% 29.70 in 10.0 mi WSW 10.4 mph - N/A   Clear